Regional Weather Roundup
Issued by NWS Charleston, WV

Home | Current Version | Previous Version | Graphics & Text | Print | Product List | Glossary On
Versions: 1 2 3 4 5 6 7 8 9 10 11 12 13 14 15 16 17 18 19 20 21 22 23 24 25 26 27 28 29 30 31 32 33 34 35 36 37 38 39 40 41 42 43 44 45 46 47 48 49 50
000
ASUS41 KRLX 180010
RWRRLX
West Virginia Regional Weather Roundup
National Weather Service Charleston WV
800 PM EDT FRI APR 17 2015

Note: "fair" indicates few or no clouds below 12,000 feet with no
significant weather and/or obstructions to visibility.

WVZ003-180100-
Northern Panhandle of West Virginia

CITY           SKY/WX    TMP DP  RH WIND       PRES   REMARKS
WHEELING       PTCLDY    68  46  45 NW6       30.01S
$$

WVZ009-180100-
Northwest West Virginia

CITY           SKY/WX    TMP DP  RH WIND       PRES   REMARKS
PARKERSBURG    PTCLDY    72  48  42 N3        30.02S
$$

WVZ006-180100-
Western West Virginia

CITY           SKY/WX    TMP DP  RH WIND       PRES   REMARKS
HUNTINGTON     CLOUDY    72  55  55 CALM      29.99S
$$

WVZ015-180100-
West Central West Virginia

CITY           SKY/WX    TMP DP  RH WIND       PRES   REMARKS
CHARLESTON     CLOUDY    72  54  53 NW3       29.99F
$$

WVZ022-031-180100-
North Central West Virginia

CITY           SKY/WX    TMP DP  RH WIND       PRES   REMARKS
CLARKSBURG     PTCLDY    64  56  75 CALM      30.01S
MORGANTOWN     MOCLDY    68  53  58 SW3       30.02S
$$

WVZ025-035-042-045-180100-
Southern West Virginia

CITY           SKY/WX    TMP DP  RH WIND       PRES   REMARKS
BECKLEY        MOCLDY    66  51  58 N6        30.05S
LOGAN            N/A     70  55  60 CALM      29.99S
BLUEFIELD      MOCLDY    70  46  42 CALM      30.06R
LEWISBURG      CLOUDY    67  51  55 CALM      30.04S
$$

WVZ047-180100-
Northern Mountains of West Virginia

CITY           SKY/WX    TMP DP  RH WIND       PRES   REMARKS
ELKINS         PTCLDY    58  55  90 CALM      30.05S
$$

WVZ052-180100-
Eastern Panhandle of West Virginia

CITY           SKY/WX    TMP DP  RH WIND       PRES   REMARKS
MARTINSBURG    PTCLDY    70  52  52 W5        29.96S
PETERSBURG     PTCLDY    64  51  62 NW6       30.01S
$$


USA.gov is the U.S. government's official web portal to all federal, state and local government web resources and services.